FLT555 VNKT-VNLK

Flight info

Callsign FLT555
Flight time 0h 29m
Altitude 150
Route KIMTI VNKL
Aircraft C408/L-VGD/C

Departure

Time 2026-04-20 12:52
Airport Tribhuvan International Airport (VNKT)

Arrival

Time 2026-04-20 13:21
Airport Tenzing-Hillary Airport (VNLK)
Time Latitude Longitude Altitude Speed Heading
2026-04-20 12:46 27.70553 85.35996 4370 ft 0 kts 245°
2026-04-20 12:48 27.70550 85.35992 4370 ft 4 kts 226°
2026-04-20 12:49 27.70479 85.36027 4383 ft 10 kts 127°
2026-04-20 12:49 27.70491 85.36124 4382 ft 19 kts 74°
2026-04-20 12:49 27.70567 85.36223 4388 ft 10 kts 41°
2026-04-20 12:49 27.70571 85.36230 4388 ft 0 kts 73°
2026-04-20 12:50 27.70580 85.36264 4389 ft 10 kts 73°
2026-04-20 12:50 27.70586 85.36298 4390 ft 6 kts 112°
2026-04-20 12:50 27.70522 85.36306 4389 ft 12 kts 198°
2026-04-20 12:50 27.70506 85.36299 4389 ft 12 kts 201°
2026-04-20 12:51 27.70241 85.36177 4379 ft 69 kts 201°
2026-04-20 12:51 27.69646 85.35905 4357 ft 113 kts 204°
2026-04-20 12:51 27.68877 85.35518 4626 ft 121 kts 205°
2026-04-20 12:51 27.68071 85.35154 4872 ft 129 kts 197°
2026-04-20 12:52 27.67312 85.34838 5479 ft 103 kts 205°
2026-04-20 12:52 27.66836 85.34327 5848 ft 97 kts 249°
2026-04-20 12:52 27.66736 85.33623 6265 ft 85 kts 279°
2026-04-20 12:52 27.66781 85.32971 6550 ft 86 kts 275°
2026-04-20 12:53 27.66850 85.32358 6958 ft 68 kts 265°
2026-04-20 12:53 27.66945 85.31783 6919 ft 101 kts 282°
2026-04-20 12:53 27.67287 85.31051 7188 ft 110 kts 301°
2026-04-20 12:53 27.67806 85.30333 7567 ft 108 kts 300°
2026-04-20 12:54 27.67389 85.29866 7846 ft 122 kts 193°
2026-04-20 12:54 27.66787 85.29382 8159 ft 116 kts 275°
2026-04-20 12:54 27.67257 85.28718 8662 ft 97 kts 325°
2026-04-20 12:54 27.67920 85.28293 9022 ft 100 kts 323°
2026-04-20 12:55 27.68621 85.27840 9245 ft 120 kts 329°
2026-04-20 12:55 27.69396 85.27766 9817 ft 122 kts
2026-04-20 12:55 27.70257 85.28130 10090 ft 128 kts 26°
2026-04-20 12:55 27.70959 85.28578 10603 ft 117 kts 24°
2026-04-20 12:56 27.71705 85.29186 10699 ft 147 kts 38°
2026-04-20 12:56 27.72479 85.30060 10839 ft 167 kts 47°
2026-04-20 12:56 27.73173 85.31194 10964 ft 183 kts 58°
2026-04-20 12:56 27.73692 85.32533 11196 ft 189 kts 70°
2026-04-20 12:57 27.73975 85.33996 11396 ft 194 kts 82°
2026-04-20 12:57 27.73993 85.35529 11583 ft 197 kts 95°
2026-04-20 12:57 27.73728 85.37065 11763 ft 201 kts 107°
2026-04-20 12:57 27.73178 85.38521 11939 ft 202 kts 120°
2026-04-20 12:58 27.72380 85.39802 12111 ft 203 kts 133°
2026-04-20 12:58 27.71346 85.40885 12282 ft 202 kts 146°
2026-04-20 12:58 27.70143 85.41693 12452 ft 201 kts 158°
2026-04-20 12:58 27.68826 85.42196 12619 ft 199 kts 174°
2026-04-20 12:59 27.67462 85.42458 12790 ft 201 kts 173°
2026-04-20 12:59 27.66183 85.43178 12966 ft 211 kts 147°
2026-04-20 12:59 27.65210 85.44442 13133 ft 218 kts 121°
2026-04-20 12:59 27.64704 85.46059 13313 ft 219 kts 104°
2026-04-20 13:00 27.64314 85.47727 13495 ft 221 kts 104°
2026-04-20 13:00 27.63920 85.49407 13671 ft 222 kts 105°
2026-04-20 13:00 27.63526 85.51072 13838 ft 223 kts 105°
2026-04-20 13:00 27.63124 85.52768 13999 ft 224 kts 105°
2026-04-20 13:01 27.62721 85.54472 14156 ft 225 kts 105°
2026-04-20 13:01 27.62315 85.56185 14313 ft 226 kts 105°
2026-04-20 13:01 27.61907 85.57908 14476 ft 228 kts 105°
2026-04-20 13:01 27.61497 85.59624 14643 ft 227 kts 105°
2026-04-20 13:02 27.61091 85.61351 14803 ft 228 kts 104°
2026-04-20 13:02 27.60829 85.63101 14955 ft 226 kts 90°
2026-04-20 13:02 27.60747 85.64878 15005 ft 233 kts 92°
2026-04-20 13:02 27.60640 85.66729 15016 ft 239 kts 92°
2026-04-20 13:03 27.60529 85.68620 15015 ft 243 kts 92°
2026-04-20 13:03 27.60421 85.70529 15015 ft 244 kts 92°
2026-04-20 13:03 27.60210 85.72429 15009 ft 245 kts 102°
2026-04-20 13:03 27.59834 85.74314 15030 ft 247 kts 102°
2026-04-20 13:04 27.59470 85.76208 15024 ft 247 kts 102°
2026-04-20 13:04 27.59106 85.78113 15024 ft 249 kts 102°
2026-04-20 13:04 27.58749 85.79986 15012 ft 247 kts 102°
2026-04-20 13:04 27.58382 85.81877 15022 ft 247 kts 102°
2026-04-20 13:05 27.58019 85.83769 15023 ft 247 kts 102°
2026-04-20 13:05 27.57653 85.85665 15028 ft 248 kts 102°
2026-04-20 13:05 27.57286 85.87569 15020 ft 249 kts 102°
2026-04-20 13:05 27.56919 85.89475 15029 ft 248 kts 102°
2026-04-20 13:06 27.56552 85.91370 15047 ft 248 kts 102°
2026-04-20 13:06 27.56186 85.93280 15045 ft 249 kts 102°
2026-04-20 13:06 27.55816 85.95186 15050 ft 249 kts 102°
2026-04-20 13:06 27.55446 85.97099 15035 ft 249 kts 101°
2026-04-20 13:07 27.55078 85.98996 15031 ft 248 kts 102°
2026-04-20 13:07 27.54717 86.00863 15035 ft 246 kts 102°
2026-04-20 13:07 27.54351 86.02749 15036 ft 246 kts 102°
2026-04-20 13:07 27.53984 86.04634 15036 ft 246 kts 102°
2026-04-20 13:08 27.53620 86.06515 14990 ft 245 kts 102°
2026-04-20 13:08 27.53258 86.08376 14994 ft 241 kts 102°
2026-04-20 13:08 27.52895 86.10236 15001 ft 245 kts 102°
2026-04-20 13:08 27.52529 86.12125 15002 ft 247 kts 102°
2026-04-20 13:09 27.52165 86.13994 14994 ft 246 kts 102°
2026-04-20 13:09 27.51800 86.15871 15003 ft 244 kts 102°
2026-04-20 13:09 27.51430 86.17756 15002 ft 247 kts 102°
2026-04-20 13:09 27.51063 86.19637 15035 ft 244 kts 102°
2026-04-20 13:10 27.50699 86.21503 15023 ft 244 kts 102°
2026-04-20 13:10 27.50336 86.23355 15024 ft 241 kts 102°
2026-04-20 13:10 27.49977 86.25193 15019 ft 239 kts 102°
2026-04-20 13:10 27.49614 86.27012 15012 ft 235 kts 104°
2026-04-20 13:11 27.49205 86.28745 15033 ft 225 kts 103°
2026-04-20 13:11 27.48831 86.30462 15003 ft 229 kts 103°
2026-04-20 13:11 27.48442 86.32228 15028 ft 232 kts 104°
2026-04-20 13:11 27.48037 86.33984 15064 ft 237 kts 104°
2026-04-20 13:12 27.47625 86.35800 15060 ft 240 kts 104°
2026-04-20 13:12 27.47211 86.37623 15048 ft 239 kts 104°
2026-04-20 13:12 27.46802 86.39435 15052 ft 239 kts 104°
2026-04-20 13:12 27.46392 86.41252 15044 ft 239 kts 104°
2026-04-20 13:13 27.45979 86.43064 15053 ft 238 kts 104°
2026-04-20 13:13 27.45568 86.44874 15058 ft 240 kts 104°
2026-04-20 13:13 27.45154 86.46696 15045 ft 237 kts 104°
2026-04-20 13:13 27.44745 86.48493 15056 ft 237 kts 105°
2026-04-20 13:14 27.44347 86.50241 15049 ft 225 kts 105°
2026-04-20 13:14 27.43962 86.51924 14836 ft 216 kts 104°
2026-04-20 13:14 27.43593 86.53552 14644 ft 214 kts 103°
2026-04-20 13:14 27.43226 86.55162 14450 ft 211 kts 104°
2026-04-20 13:15 27.42861 86.56764 14176 ft 216 kts 103°
2026-04-20 13:15 27.42484 86.58421 13945 ft 219 kts 103°
2026-04-20 13:15 27.42104 86.60089 13722 ft 220 kts 101°
2026-04-20 13:15 27.42044 86.61789 13484 ft 217 kts 78°
2026-04-20 13:16 27.42474 86.63360 13216 ft 208 kts 58°
2026-04-20 13:16 27.43282 86.64636 12978 ft 194 kts 38°
2026-04-20 13:16 27.44361 86.65544 12793 ft 195 kts 27°
2026-04-20 13:16 27.45637 86.66063 12552 ft 197 kts 12°
2026-04-20 13:17 27.46977 86.66462 12304 ft 201 kts 12°
2026-04-20 13:17 27.48312 86.66860 12076 ft 197 kts
2026-04-20 13:17 27.49662 86.67131 11826 ft 196 kts
2026-04-20 13:17 27.51006 86.67358 11584 ft 194 kts
2026-04-20 13:18 27.52350 86.67581 11335 ft 197 kts
2026-04-20 13:18 27.53686 86.67811 11123 ft 200 kts
2026-04-20 13:18 27.55074 86.68094 10866 ft 202 kts
2026-04-20 13:18 27.56427 86.68302 10696 ft 192 kts
2026-04-20 13:19 27.57758 86.68470 10476 ft 195 kts
2026-04-20 13:19 27.59107 86.68640 10229 ft 194 kts
2026-04-20 13:19 27.60409 86.68903 10154 ft 184 kts 10°
2026-04-20 13:19 27.61634 86.69185 10142 ft 181 kts
2026-04-20 13:20 27.62859 86.69483 10133 ft 180 kts
2026-04-20 13:20 27.64099 86.69776 10143 ft 186 kts 11°
2026-04-20 13:20 27.65371 86.70086 10152 ft 187 kts
2026-04-20 13:20 27.66579 86.70380 10184 ft 155 kts
2026-04-20 13:21 27.67227 86.70595 9968 ft 142 kts 29°
2026-04-20 13:21 27.67891 86.71371 9500 ft 137 kts 60°
2026-04-20 13:21 27.68476 86.72565 9239 ft 119 kts 55°
2026-04-20 13:21 27.68738 86.73118 9447 ft 7 kts 298°
2026-04-20 13:22 27.68738 86.73117 9437 ft 0 kts 302°